Waarnemingen

Advertentie
Mijn weer
Oostende Airport, België (6407): temperatuur & dauwpunt: 18.04.2019 20:00:00 - 24.04.2019 20:00:00 (CEST)Oostende Airport, België (6407): windsnelheid & windstoten: 18.04.2019 20:00:00 - 24.04.2019 20:00:00 (CEST)Oostende Airport, België (6407): windrichting: 18.04.2019 20:00:00 - 24.04.2019 20:00:00 (CEST)Oostende Airport, België (6407): luchtdruk: 18.04.2019 20:00:00 - 24.04.2019 20:00:00 (CEST)Oostende Airport, België (6407): zicht: 18.04.2019 20:00:00 - 24.04.2019 20:00:00 (CEST)
Datum & Tijd tt [°C] td [°C] ff [km/u] ff [kn] fx [km/u] fx [kn] dd ppp [hPa] vv [km]
24.04.2019 20:00:00 13,6 9,1 11 6 - - ZZW 999,5 10
24.04.2019 19:00:00 13,0 9,5 18 10 32 18 W 998,4 10
24.04.2019 18:00:00 13,1 9,7 26 14 36 19 W 998,0 10
24.04.2019 17:00:00 14,6 10,5 26 14 - - W 997,3 10
24.04.2019 16:00:00 20,3 9,3 35 19 54 29 Z 996,9 10
24.04.2019 15:00:00 20,7 8,8 41 22 61 33 Z 996,5 10
24.04.2019 14:00:00 20,8 8,0 37 20 - - Z 996,2 10
24.04.2019 13:00:00 21,0 9,7 37 20 54 29 Z 995,9 10
24.04.2019 12:00:00 19,9 10,5 34 18 47 25 Z 995,8 10
24.04.2019 11:00:00 18,9 10,6 28 15 - - ZZO 995,6 10
24.04.2019 10:00:00 17,1 10,5 24 13 40 21 ZZO 995,7 10
24.04.2019 09:00:00 15,4 10,5 18 10 25 14 ZZO 995,5 10
24.04.2019 08:00:00 12,6 10,1 11 6 - - ZO 995,6 10
24.04.2019 07:00:00 11,0 9,3 15 8 22 12 ZO 995,4 10
24.04.2019 06:00:00 11,5 9,5 13 7 22 12 ZZO 995,2 10
24.04.2019 05:00:00 10,5 8,7 13 7 - - ZZO 995,5 10
24.04.2019 04:00:00 9,7 6,7 9 5 14 8 ZO 995,4 10
24.04.2019 03:00:00 11,3 7,9 5 3 11 6 ZZO 995,4 10
24.04.2019 02:00:00 11,5 8,2 8 4 - - ZO 995,4 10
24.04.2019 01:00:00 12,5 8,8 9 5 14 8 ZO 995,6 10
24.04.2019 00:00:00 13,4 9,1 11 6 15 8 ZO 995,5 10
23.04.2019 23:00:00 14,0 8,2 9 5 - - O 995,4 10
23.04.2019 22:00:00 16,6 8,0 8 4 11 6 ONO 995,6 10
23.04.2019 21:00:00 16,9 7,1 8 4 14 8 O 995,6 10
23.04.2019 20:00:00 18,4 9,1 11 6 - - O 995,6 10
23.04.2019 19:00:00 20,2 8,5 16 9 29 16 O 995,6 10
23.04.2019 18:00:00 21,3 7,2 13 7 29 16 O 995,6 10
23.04.2019 17:00:00 20,7 7,5 18 10 - - O 996,0 10
23.04.2019 16:00:00 20,4 7,6 16 9 25 14 O 996,5 10
23.04.2019 15:00:00 19,9 7,0 16 9 22 12 NNO 996,8 10
23.04.2019 14:00:00 20,0 7,0 11 6 - - O 997,1 10
23.04.2019 13:00:00 18,0 6,6 13 7 22 12 O 997,6 10
23.04.2019 12:00:00 15,9 6,1 11 6 22 12 O 998,0 10
23.04.2019 11:00:00 14,9 5,2 15 8 - - O 998,2 10
23.04.2019 10:00:00 13,3 4,8 13 7 18 10 O 998,5 10
23.04.2019 09:00:00 12,3 3,9 15 8 22 12 O 998,7 10
23.04.2019 08:00:00 11,8 3,7 15 8 - - O 999,0 10
23.04.2019 07:00:00 11,7 3,2 15 8 18 10 O 999,2 10
23.04.2019 06:00:00 12,3 3,8 16 9 22 12 O 999,3 10
23.04.2019 05:00:00 13,0 4,1 15 8 - - O 999,8 10
23.04.2019 04:00:00 13,8 4,4 16 9 18 10 O 1000,3 10
23.04.2019 03:00:00 14,3 4,5 16 9 25 14 O 1000,7 10
23.04.2019 02:00:00 15,0 4,3 18 10 - - O 1001,0 10
23.04.2019 01:00:00 15,2 3,8 18 10 25 14 O 1001,4 10
23.04.2019 00:00:00 16,3 3,7 18 10 22 12 ONO 1001,7 10
22.04.2019 23:00:00 16,3 5,2 13 7 - - ONO 1002,4 10
22.04.2019 22:00:00 18,4 4,7 13 7 14 8 ONO 1002,7 10
22.04.2019 21:00:00 18,7 6,0 9 5 14 8 NO 1002,9 10
22.04.2019 20:00:00 21,1 4,2 8 4 - - O 1003,1 10
22.04.2019 19:00:00 22,7 3,0 11 6 25 14 O 1003,5 10
22.04.2019 18:00:00 24,3 2,1 18 10 29 16 OZO 1004,0 10
22.04.2019 17:00:00 24,6 2,7 16 9 - - ZO 1004,5 10
22.04.2019 16:00:00 23,4 2,6 21 11 36 19 OZO 1005,2 10
22.04.2019 15:00:00 24,4 3,4 24 13 36 19 OZO 1005,8 10
22.04.2019 14:00:00 24,5 5,2 22 12 - - OZO 1006,4 10
22.04.2019 13:00:00 23,4 4,0 16 9 22 12 OZO 1007,0 10
22.04.2019 12:00:00 21,9 4,2 15 8 22 12 OZO 1007,8 10
22.04.2019 11:00:00 19,4 5,8 16 9 - - O 1008,5 10
22.04.2019 10:00:00 15,4 7,0 13 7 22 12 OZO 1008,9 10
22.04.2019 09:00:00 13,4 5,5 13 7 18 10 O 1009,2 10
22.04.2019 08:00:00 11,4 5,1 11 6 - - O 1009,6 10
22.04.2019 07:00:00 10,1 4,4 13 7 14 8 O 1009,9 10
22.04.2019 06:00:00 9,9 4,2 13 7 14 8 O 1010,3 10
22.04.2019 05:00:00 9,7 5,2 9 5 - - O 1011,0 10
22.04.2019 04:00:00 10,1 6,0 9 5 11 6 ONO 1011,7 10
22.04.2019 03:00:00 10,1 6,5 9 5 14 8 ONO 1012,6 10
22.04.2019 02:00:00 11,1 6,8 9 5 - - ONO 1013,4 10
22.04.2019 01:00:00 11,7 7,6 11 6 14 8 NO 1014,1 10
22.04.2019 00:00:00 11,1 7,0 5 3 11 6 NO 1014,6 10
21.04.2019 23:00:00 11,7 6,4 9 5 - - NO 1015,3 10
21.04.2019 22:00:00 12,4 6,0 9 5 22 12 NO 1015,7 10
21.04.2019 21:00:00 13,6 5,2 18 10 29 16 NO 1015,8 10
21.04.2019 20:00:00 15,1 4,8 21 11 - - NO 1016,2 10
21.04.2019 19:00:00 16,2 4,6 21 11 36 19 NO 1016,7 10
21.04.2019 18:00:00 16,4 5,4 24 13 32 18 NNO 1017,5 10
21.04.2019 17:00:00 17,4 5,4 26 14 - - NNO 1018,3 10
21.04.2019 16:00:00 18,3 4,9 22 12 32 18 NNO 1018,9 10
21.04.2019 15:00:00 17,9 6,4 22 12 29 16 NNO 1019,6 10
21.04.2019 14:00:00 17,7 6,2 21 11 - - NNO 1020,4 10
21.04.2019 13:00:00 17,7 6,5 18 10 29 16 NNO 1021,1 10
21.04.2019 12:00:00 19,0 5,7 16 9 31 17 N 1021,8 10
21.04.2019 11:00:00 18,6 4,9 18 10 - - ONO 1022,2 10
21.04.2019 10:00:00 16,4 4,6 11 6 22 12 ONO 1022,5 10
21.04.2019 09:00:00 13,8 4,7 13 7 18 10 O 1022,7 10
21.04.2019 08:00:00 11,3 3,6 13 7 - - ONO 1022,9 10
21.04.2019 07:00:00 9,6 3,4 11 6 14 8 O 1023,0 10
21.04.2019 06:00:00 10,4 3,9 13 7 18 10 O 1023,3 10
21.04.2019 05:00:00 11,1 4,4 15 8 - - O 1023,8 10
21.04.2019 04:00:00 11,2 5,0 15 8 18 10 O 1024,5 10
21.04.2019 03:00:00 11,8 5,6 15 8 18 10 ONO 1024,9 10
21.04.2019 02:00:00 12,1 5,5 11 6 - - ONO 1025,5 12
21.04.2019 01:00:00 12,7 6,6 11 6 18 10 NO 1025,9 10
21.04.2019 00:00:00 10,9 7,5 11 6 25 14 NO 1026,3 10
20.04.2019 23:00:00 12,7 7,5 18 10 - - NNO 1026,5 10
20.04.2019 22:00:00 13,5 6,8 24 13 32 18 NO 1026,8 10
20.04.2019 21:00:00 13,6 6,7 24 13 36 19 NO 1026,8 10
20.04.2019 20:00:00 14,4 6,5 26 14 - - NNO 1027,0 10
20.04.2019 19:00:00 16,7 6,1 21 11 32 18 NNO 1027,2 10
20.04.2019 18:00:00 16,2 8,0 22 12 32 18 NNO 1027,7 10
20.04.2019 17:00:00 16,0 7,6 22 12 - - N 1028,1 10
20.04.2019 16:00:00 16,6 7,8 26 14 32 18 NNO 1028,6 10
20.04.2019 15:00:00 18,9 8,2 21 11 32 18 NNO 1029,0 10
20.04.2019 14:00:00 18,2 8,8 22 12 - - NNO 1029,2 10
20.04.2019 13:00:00 18,4 9,2 21 11 29 16 N 1029,4 10
20.04.2019 12:00:00 20,9 9,3 13 7 18 10 N 1029,5 10
20.04.2019 11:00:00 18,6 8,4 9 5 - - NO 1029,6 10
20.04.2019 10:00:00 16,3 9,4 11 6 18 10 NNO 1029,8 10
20.04.2019 09:00:00 15,1 6,7 11 6 18 10 O 1029,6 10
20.04.2019 08:00:00 12,0 7,7 5 3 - - NO 1029,4 10
20.04.2019 07:00:00 11,4 6,4 13 7 18 10 NO 1028,8 10
20.04.2019 06:00:00 10,6 6,5 9 5 18 10 NO 1028,7 10
20.04.2019 05:00:00 11,0 7,2 11 6 - - NO 1028,7 9
20.04.2019 04:00:00 10,9 7,8 11 6 22 12 NO 1028,5 8
20.04.2019 03:00:00 11,4 7,8 13 7 22 12 NNO 1028,4 9
20.04.2019 02:00:00 12,0 7,8 16 9 - - NNO 1028,7 10
20.04.2019 01:00:00 12,6 7,8 13 7 18 10 NNO 1028,9 10
20.04.2019 00:00:00 11,8 8,0 15 8 25 14 NNO 1028,9 10
19.04.2019 23:00:00 13,0 7,6 18 10 - - NNO 1028,8 10
19.04.2019 22:00:00 13,6 7,2 22 12 29 16 NNO 1028,6 10
19.04.2019 21:00:00 14,7 7,0 21 11 32 18 NNO 1028,3 10
19.04.2019 20:00:00 15,4 7,4 26 14 - - NO 1028,0 10
19.04.2019 19:00:00 15,8 7,7 26 14 40 21 NNO 1027,8 10
19.04.2019 18:00:00 16,8 7,0 28 15 36 19 NNO 1027,7 10
19.04.2019 17:00:00 17,9 7,1 29 16 - - NNO 1027,7 10
19.04.2019 16:00:00 19,8 8,3 22 12 29 16 NNO 1027,6 10
19.04.2019 15:00:00 18,8 8,6 18 10 29 16 NNO 1027,5 10
19.04.2019 14:00:00 19,6 9,0 18 10 - - NNO 1027,6 10
19.04.2019 13:00:00 19,7 8,7 16 9 22 12 N 1027,7 10
19.04.2019 12:00:00 18,9 6,9 15 8 18 10 N 1027,8 10
19.04.2019 11:00:00 17,4 6,8 13 7 - - O 1027,6 10
19.04.2019 10:00:00 15,1 6,1 18 10 25 14 O 1027,3 10
19.04.2019 09:00:00 12,6 5,5 16 9 22 12 ONO 1026,9 10
19.04.2019 08:00:00 10,9 4,5 11 6 - - ONO 1026,6 10
19.04.2019 07:00:00 9,9 3,9 13 7 18 10 ONO 1026,0 10
19.04.2019 06:00:00 9,5 3,6 15 8 18 10 ONO 1025,8 10
19.04.2019 05:00:00 10,0 3,7 16 9 - - ONO 1025,7 10
19.04.2019 04:00:00 10,1 3,8 16 9 22 12 ONO 1025,5 10
19.04.2019 03:00:00 11,1 4,2 16 9 22 12 ONO 1025,3 10
19.04.2019 02:00:00 12,2 4,3 18 10 - - ONO 1025,2 10
19.04.2019 01:00:00 13,9 4,7 18 10 29 16 ONO 1025,1 10
19.04.2019 00:00:00 14,8 5,4 24 13 29 16 ONO 1024,7 10
18.04.2019 23:00:00 14,6 6,1 18 10 - - NO 1024,4 10
18.04.2019 22:00:00 13,0 7,1 16 9 22 12 NO 1024,3 10
18.04.2019 21:00:00 13,7 7,1 16 9 25 14 NO 1023,9 10
18.04.2019 20:00:00 15,0 7,5 21 11 - - NO 1023,5 10

tt = temperatuur
td = dauwpunt
ff = windsnelheid
fx = windstoten
dd = windrichting
ppp = luchtdruk
vv = zicht

Weerstations in de omgeving